Theta_e
353 352 350 349 347 344 344 339 317 324 321 313 314 318 316 328 330 326 325 329 325 335 337 335 335 333 331 327 326 330 331 323 320 309 305 327 347 349 351 351 350 350 349 351 354 357 358 360 362 365 365 365 365 365 366 366 366 367 366 366 365 365 364 364 363 363 364 363 364 365 364 365 364 364 362 362 364 363 362 362 361 361 360 360 359 360 360 360 359 360 361 361 361 360 360 357 357
352 350 349 348 344 344 331 338 321 318 317 313 314 322 322 328 328 324 325 327 330 333 335 336 337 338 338 334 333 332 329 333 335 333 337 345 349 350 353 351 350 349 351 353 356 357 358 359 361 365 365 364 365 365 366 366 366 366 366 366 365 365 364 363 363 363 364 364 365 364 365 365 364 363 363 363 363 363 362 362 360 361 361 361 361 360 359 360 360 361 360 360 361 359 360 354 353
351 349 346 347 344 340 337 335 315 315 311 307 313 320 328 323 324 327 329 331 335 336 337 337 338 338 336 337 328 328 319 337 336 338 338 347 342 345 352 352 352 352 354 356 356 357 357 359 361 365 364 365 365 366 366 365 365 365 366 366 365 364 364 363 364 363 364 365 364 365 364 363 362 362 362 363 362 361 360 360 360 361 361 361 360 361 363 362 360 360 361 361 361 359 357 356 357
351 349 343 342 331 339 327 325 319 316 311 312 313 324 325 326 326 328 333 335 334 335 335 333 329 338 335 327 329 333 331 331 338 338 337 341 340 350 352 353 355 355 356 356 356 358 357 359 361 365 365 365 365 365 365 365 365 365 365 365 364 364 363 363 364 364 364 364 364 364 362 362 361 361 364 362 360 360 361 361 360 360 360 360 360 360 361 361 360 360 359 360 359 358 356 356 354
349 349 348 340 333 322 324 322 320 319 312 316 313 324 326 328 329 331 333 337 338 337 339 335 330 337 341 333 334 326 328 338 339 342 341 346 351 352 353 355 355 355 355 356 358 358 358 361 363 365 365 365 365 365 365 365 365 365 364 364 364 364 364 364 364 364 363 364 363 363 363 361 361 361 363 362 362 360 360 361 361 360 361 360 360 362 363 362 361 361 360 360 360 358 358 356 356
346 345 347 346 330 338 329 317 316 315 322 325 319 324 329 330 330 332 332 336 337 337 340 337 329 330 331 333 337 331 337 328 338 341 343 345 351 354 355 356 355 354 356 357 358 358 357 362 364 365 365 365 365 365 365 365 364 364 364 364 364 364 364 365 364 364 364 363 363 362 362 361 362 362 361 361 361 360 359 360 361 360 361 362 361 361 362 362 361 361 361 361 359 359 358 358 355
339 341 342 342 338 337 319 316 315 317 324 328 325 326 330 332 333 331 331 332 335 336 338 334 334 332 328 334 338 340 347 343 340 341 347 349 352 354 355 355 354 354 356 357 358 359 360 364 365 365 365 364 365 365 365 364 364 364 364 364 364 364 363 364 364 363 363 363 362 362 362 362 361 361 362 360 361 361 360 361 360 361 359 361 362 362 361 360 361 360 359 360 360 359 358 358 359
348 339 336 327 322 325 317 317 317 323 323 327 331 329 331 333 333 331 330 328 327 330 336 335 336 331 328 338 327 341 346 347 346 349 351 351 353 354 355 355 354 355 356 357 358 361 365 365 364 364 364 364 364 365 364 364 364 363 364 364 364 363 363 363 363 363 363 363 362 362 362 362 361 361 360 361 362 361 360 359 360 362 362 361 362 362 358 358 359 359 358 357 358 358 357 356 356
345 343 342 329 320 324 319 317 318 328 326 329 330 334 336 336 336 332 332 333 332 335 333 333 335 327 329 333 332 340 343 348 349 351 351 352 353 354 355 354 354 354 356 357 359 361 362 364 364 364 364 364 364 364 364 364 364 363 364 363 364 363 362 362 363 363 363 362 362 361 362 360 361 361 361 361 360 361 360 361 362 362 362 361 361 361 360 360 359 357 358 358 359 358 356 355 357
339 340 326 324 325 315 315 314 317 322 324 331 331 332 335 336 335 336 331 331 331 333 335 337 335 329 333 329 333 339 341 348 349 348 351 352 353 354 354 355 355 355 356 357 359 360 361 364 364 364 364 364 364 365 364 364 364 363 364 364 363 363 361 363 363 363 363 361 360 360 360 360 360 361 361 361 361 361 360 362 362 362 361 361 362 362 362 361 360 358 356 356 357 358 357 356 356
331 339 338 322 317 314 312 315 320 323 324 331 333 335 337 339 336 334 335 332 334 331 333 336 331 330 331 332 335 346 347 348 346 345 350 352 353 353 353 355 356 356 356 357 359 360 361 361 364 363 364 364 364 365 364 363 364 364 364 363 363 362 362 363 363 363 362 360 360 359 360 361 359 359 361 361 361 360 361 362 362 362 361 362 362 362 362 361 360 359 356 357 357 358 358 358 356
327 326 328 317 315 314 315 316 321 324 326 330 329 335 337 337 336 330 330 328 332 331 331 336 329 335 329 330 332 342 345 345 346 348 350 352 351 353 353 355 356 357 358 358 360 359 360 360 361 363 365 365 365 364 363 364 364 363 363 363 362 363 362 363 364 363 363 361 360 360 358 360 360 360 359 361 361 361 361 362 362 361 362 362 362 362 360 361 361 359 359 357 357 356 356 356 356
330 330 324 319 316 314 319 318 320 321 322 328 330 336 342 336 333 332 332 332 333 330 330 339 337 336 326 329 339 342 341 344 347 349 350 350 351 352 354 355 356 358 359 359 358 358 359 359 360 361 363 365 364 363 363 364 362 363 364 364 364 363 362 363 362 363 363 362 361 361 359 358 359 360 359 359 362 361 359 362 362 362 362 362 362 361 360 360 361 360 359 358 355 356 357 355 355
332 333 327 316 321 320 320 316 322 320 321 330 336 338 339 337 336 336 334 330 331 332 339 339 338 336 330 333 334 336 340 345 347 349 349 350 351 352 352 354 356 358 358 358 357 357 357 358 360 360 361 361 361 363 363 363 364 364 363 363 363 362 362 363 363 362 362 361 360 361 358 359 360 360 360 361 359 361 361 360 362 363 362 362 362 362 360 360 361 361 359 360 358 356 356 354 354
331 336 329 322 320 320 322 316 319 321 321 331 334 337 337 339 341 338 336 330 333 344 341 342 339 333 325 329 329 334 340 345 347 348 349 350 351 351 352 354 355 356 357 357 358 357 357 357 359 359 360 359 359 359 360 362 364 363 364 364 364 363 363 364 363 362 362 361 362 361 360 360 359 360 360 360 361 363 362 360 361 363 363 362 362 362 360 360 359 360 360 360 358 359 356 357 355
336 337 329 319 317 316 317 319 325 321 322 333 335 339 337 338 344 337 338 342 336 344 344 333 340 334 334 333 334 340 343 345 347 349 348 348 349 350 352 353 354 355 355 356 356 356 357 357 357 358 358 358 358 358 359 361 363 363 363 364 364 362 363 364 362 362 362 361 362 363 361 360 359 358 360 361 360 361 362 360 361 362 362 361 362 362 361 359 360 360 360 360 359 358 358 357 357
343 336 322 318 314 317 319 319 322 315 327 334 336 336 331 332 341 340 347 347 334 337 340 342 337 343 336 337 341 344 345 347 348 347 346 346 346 347 349 350 351 352 354 354 354 356 357 357 357 357 358 358 358 358 357 358 362 364 363 362 362 363 364 363 362 361 361 362 362 361 364 359 359 360 361 361 361 362 361 361 361 362 362 362 362 362 361 362 360 359 360 360 360 358 359 359 359
340 326 321 315 316 315 321 321 325 328 327 332 333 337 334 330 337 339 346 338 338 338 336 339 340 339 341 342 344 345 345 345 345 344 343 343 344 344 344 347 348 348 351 352 354 356 357 358 357 356 357 357 357 358 358 359 361 362 359 360 362 362 361 362 363 363 362 360 361 361 361 361 357 359 362 363 364 363 361 361 361 363 363 362 362 362 361 360 359 359 359 360 359 362 362 357 360
329 325 321 315 316 320 329 329 330 329 328 333 334 337 336 333 338 339 332 332 332 330 334 335 334 337 340 342 342 342 343 343 344 343 342 341 342 341 342 345 346 348 349 352 354 356 357 357 357 357 356 356 356 357 357 358 357 357 358 359 360 362 362 362 361 361 357 358 359 360 360 358 358 359 361 362 364 361 362 360 361 360 363 362 362 362 361 361 360 359 359 359 361 361 357 357 356
331 326 319 318 322 324 330 333 332 334 335 332 332 335 336 337 339 339 332 330 331 328 328 331 332 332 336 338 340 341 342 342 343 342 341 341 342 342 342 343 344 346 349 351 353 356 358 357 357 357 356 356 355 356 356 355 356 357 358 358 358 359 359 359 357 357 357 357 357 358 357 359 357 358 361 362 364 357 361 361 360 360 361 363 365 362 362 360 361 360 360 362 361 359 356 357 357
328 326 320 321 326 323 329 336 337 336 337 334 333 337 334 338 339 339 333 328 329 329 333 332 331 333 335 337 338 341 341 341 341 341 341 341 342 343 343 343 344 346 350 352 354 355 356 357 357 356 356 356 355 357 355 355 357 357 357 357 357 357 356 356 356 356 357 356 356 356 357 358 356 356 357 357 355 357 357 357 358 359 360 362 363 357 358 360 359 358 358 360 357 358 357 355 354
325 325 328 327 327 323 330 336 337 336 338 334 334 331 331 341 338 337 332 325 325 330 333 336 336 336 336 336 338 341 340 340 340 340 340 341 340 341 343 344 347 348 351 350 351 354 355 356 357 356 356 355 355 355 354 358 358 356 356 356 356 356 356 355 355 355 356 356 355 358 358 355 356 355 355 355 355 356 356 356 356 357 358 358 361 356 357 357 357 357 357 358 358 357 355 356 358
315 320 322 327 329 325 334 335 335 335 334 332 332 335 338 334 334 339 333 331 337 338 337 338 338 338 339 339 339 339 339 339 339 339 340 340 340 341 342 344 345 345 349 350 353 354 355 356 357 357 355 354 354 355 357 357 355 356 356 356 354 354 355 354 354 355 355 355 356 359 355 354 354 354 354 354 354 355 355 356 356 357 356 357 359 357 357 357 356 357 356 356 357 357 354 353 354
320 316 320 320 325 325 331 334 335 334 333 332 337 338 333 334 329 340 333 341 342 343 340 339 339 339 339 337 339 339 339 339 338 339 341 341 341 342 343 344 346 347 349 350 352 353 354 354 357 357 355 354 354 355 356 355 355 356 357 359 355 357 356 354 354 354 355 356 357 359 359 354 354 353 353 354 354 355 355 355 355 356 356 357 359 358 358 357 357 356 356 356 356 356 353 352 352
318 317 321 321 322 324 329 334 334 334 334 337 336 331 331 333 333 336 333 337 341 340 340 339 339 338 338 337 339 339 339 339 338 339 341 342 342 344 344 345 346 347 347 349 351 352 353 355 356 356 355 354 354 355 355 354 355 356 358 355 354 359 354 354 354 356 355 358 359 360 359 353 353 353 353 353 354 354 355 355 355 355 357 356 357 355 358 357 356 356 356 356 355 355 354 351 353
318 318 320 319 318 318 331 333 334 334 335 336 331 330 333 336 338 332 335 337 341 340 339 338 337 336 336 337 339 339 339 339 339 338 339 341 342 343 343 344 345 345 347 349 350 351 354 355 355 355 355 353 354 355 354 354 354 355 356 354 354 359 354 355 356 356 355 356 357 358 359 354 354 354 354 353 354 354 355 356 356 356 357 356 356 355 356 356 356 355 356 357 356 354 353 353 354
317 314 314 313 312 315 332 332 333 334 335 333 329 330 332 336 333 323 336 338 339 337 336 337 336 335 336 337 339 339 339 339 340 340 340 340 341 342 343 344 344 345 348 348 349 351 354 354 354 355 354 356 354 354 354 353 355 354 357 355 356 356 356 357 357 356 355 356 357 357 358 358 354 355 354 354 353 354 354 355 355 356 356 356 356 355 357 357 355 356 357 357 355 356 355 354 357
310 310 308 306 324 321 332 332 332 333 331 332 331 329 332 335 330 326 334 337 337 334 335 335 335 335 336 336 338 339 339 341 341 341 338 338 338 341 342 342 343 346 347 347 349 351 353 353 354 354 354 356 355 354 356 353 354 354 356 355 356 356 357 355 356 356 358 355 357 356 357 358 360 355 355 354 354 354 354 355 355 356 356 355 357 356 357 359 358 358 358 356 355 356 356 356 357
310 309 305 311 325 325 330 329 332 332 329 332 333 327 325 328 325 332 336 337 335 334 334 334 334 335 336 336 337 338 339 340 341 340 339 340 341 342 342 344 344 345 348 349 349 351 352 353 353 354 354 355 354 354 354 353 354 355 356 355 357 357 357 356 355 355 355 355 355 357 357 357 361 356 356 356 360 354 354 354 354 357 356 356 358 359 359 360 361 359 358 359 356 354 354 354 359
310 307 303 319 318 319 327 333 332 330 330 332 329 309 314 323 329 333 337 335 333 332 332 334 333 334 335 336 335 337 339 340 340 340 340 340 341 342 342 344 346 346 347 349 350 350 352 354 355 354 354 354 354 354 354 352 353 355 357 355 359 357 356 355 356 354 356 354 355 357 357 358 359 357 356 356 357 354 353 353 354 354 356 358 359 359 359 359 358 356 357 354 360 356 354 355 354
303 305 305 312 310 310 326 330 331 326 331 331 329 310 309 318 327 333 336 336 331 330 331 332 333 333 334 335 334 336 338 339 340 341 341 341 342 343 343 344 346 347 349 348 349 350 353 353 354 353 355 353 355 353 354 352 353 355 355 355 356 356 356 355 355 354 354 353 354 356 357 359 359 357 357 356 355 354 352 352 352 354 356 358 357 358 359 357 358 357 357 353 353 353 353 357 357
299 301 294 294 309 308 320 331 330 323 328 331 324 311 313 317 325 333 336 335 332 329 330 331 331 333 334 334 333 335 336 339 340 340 341 341 342 342 343 344 346 347 348 348 349 351 351 352 354 353 354 352 353 353 353 352 353 354 355 357 355 356 356 355 354 353 353 352 355 356 357 359 359 357 357 356 355 354 353 352 353 356 357 357 355 359 359 358 357 356 358 354 355 354 358 354 353
296 297 293 297 302 300 319 326 331 328 327 329 323 311 313 317 326 333 335 334 332 329 329 330 330 332 333 334 332 334 335 336 338 339 340 341 342 343 343 345 346 347 349 349 349 350 351 352 354 352 352 352 352 352 352 352 353 353 353 356 354 355 354 354 353 353 353 352 353 355 357 359 359 357 358 357 356 355 354 354 356 357 358 356 356 359 359 360 358 356 356 360 355 354 352 351 352
295 295 296 294 300 298 311 322 329 327 328 322 326 319 316 318 326 332 333 333 331 329 328 329 330 331 332 333 332 332 333 334 335 337 339 340 341 343 344 347 347 348 349 350 350 350 351 351 352 351 353 353 352 351 351 351 352 353 353 354 357 353 353 354 353 352 352 352 353 354 356 358 360 358 358 357 356 356 355 356 358 357 359 358 357 359 358 358 357 357 354 356 357 355 352 350 349
294 295 295 295 292 302 309 315 323 325 326 322 323 321 321 322 325 330 332 333 331 329 329 329 329 330 331 331 331 331 332 333 334 337 338 340 341 342 344 346 346 348 349 350 350 351 351 351 352 352 352 353 352 351 350 350 351 351 351 352 353 352 352 352 353 351 352 352 352 354 356 358 362 357 359 359 356 359 358 358 358 359 360 358 358 358 357 360 360 356 356 356 359 357 354 352 350
296 296 295 294 294 293 296 306 312 326 321 320 321 319 320 323 323 328 331 332 330 330 330 329 329 330 330 330 330 330 331 333 336 337 338 340 341 342 343 345 346 347 348 349 350 350 351 351 351 351 352 352 351 349 349 348 349 349 347 349 350 351 350 352 351 352 353 352 354 355 356 356 359 358 359 359 357 358 357 358 358 360 360 359 358 357 356 356 357 358 356 358 356 356 361 357 355
299 297 296 296 296 296 298 298 304 327 321 319 320 321 321 322 322 326 330 331 330 329 328 328 328 329 329 329 329 330 330 332 335 336 337 338 340 342 343 345 345 347 348 349 349 349 350 350 350 348 350 351 350 347 347 346 345 345 347 347 347 349 349 350 351 351 353 353 355 355 356 356 357 358 360 359 356 361 358 358 358 359 360 359 358 357 356 356 355 357 355 361 359 354 354 356 353
300 298 297 295 296 295 298 300 301 323 320 318 320 319 320 321 322 325 330 330 328 328 328 328 328 329 329 329 329 329 330 333 335 334 336 337 339 340 342 343 346 343 346 348 348 348 349 350 349 349 349 350 350 348 348 346 347 347 346 346 347 348 349 350 349 351 353 355 356 356 357 357 357 357 361 360 358 359 357 357 358 359 360 359 358 359 357 361 360 355 356 355 353 353 351 354 352
299 298 296 295 294 297 299 300 300 316 321 314 317 317 318 320 322 325 328 328 329 330 330 329 329 328 329 329 329 329 329 330 332 333 334 336 337 339 341 342 344 345 345 347 348 349 348 348 349 349 349 349 349 349 348 346 347 348 347 346 348 347 350 352 351 352 355 355 356 357 358 357 357 357 361 362 358 358 358 357 358 359 360 360 359 356 356 356 357 356 356 354 351 352 356 357 354
297 295 295 294 294 296 292 296 298 313 318 311 313 314 316 319 320 323 328 329 330 331 331 331 331 329 329 330 330 330 329 329 330 331 332 335 336 338 340 341 342 344 345 346 347 348 348 348 347 348 348 349 349 350 351 348 348 348 348 348 348 349 348 353 353 354 355 355 355 357 358 358 358 358 360 362 360 359 358 358 358 358 359 360 358 356 355 355 356 354 354 356 351 349 348 353 359
297 297 295 294 296 295 296 296 298 298 307 314 309 306 306 314 315 318 325 330 330 330 331 331 331 332 332 332 332 332 330 330 330 331 332 334 334 336 338 340 342 342 343 344 346 347 348 346 347 347 348 348 349 351 350 348 350 345 345 346 349 349 350 350 349 350 353 355 356 357 357 359 359 359 361 362 361 358 359 359 358 359 359 359 359 356 355 355 356 357 356 357 353 350 348 350 354
294 297 299 298 296 298 297 297 296 292 292 295 305 294 297 306 315 318 322 326 326 329 328 328 330 331 331 330 331 332 333 332 332 331 332 333 334 336 338 340 340 341 342 344 347 348 348 347 347 347 348 348 348 349 349 348 347 343 341 341 341 342 342 344 344 346 349 352 354 357 359 360 360 361 362 363 361 359 358 359 359 360 359 359 359 357 357 356 356 358 357 357 355 351 351 350 349
295 296 300 300 299 298 298 296 296 288 288 298 305 294 290 302 313 317 320 323 324 326 327 328 329 330 331 331 331 332 332 332 333 333 333 333 333 335 337 338 340 340 342 344 346 347 347 347 346 347 347 348 348 348 348 349 345 343 342 341 342 342 342 343 347 349 350 353 356 356 358 360 361 361 362 363 361 360 358 359 359 360 360 359 362 358 357 357 357 359 359 357 356 358 353 351 349
293 298 299 300 299 298 297 297 294 291 295 296 303 298 294 297 306 317 320 321 322 323 324 326 328 329 330 331 332 332 333 333 333 333 333 333 333 334 335 338 339 341 342 343 344 346 346 346 346 346 347 349 348 348 347 348 345 343 342 341 342 341 342 343 346 348 352 355 354 356 357 359 361 362 362 363 363 361 359 359 360 361 360 359 362 360 359 359 359 360 361 360 358 359 354 352 350
296 298 299 298 299 298 297 295 291 291 292 288 295 301 300 295 303 314 320 317 319 321 323 324 327 329 330 331 332 333 334 334 334 333 333 333 333 334 336 337 340 341 342 342 343 344 345 345 346 347 347 348 348 348 347 347 348 345 343 341 341 342 343 344 348 350 351 355 353 354 356 357 359 361 362 362 363 362 362 360 360 360 359 358 363 362 360 360 359 358 359 359 358 357 357 354 353
301 299 300 297 296 296 294 291 292 293 289 286 292 301 298 295 293 312 318 317 317 320 323 325 326 327 329 331 332 333 334 335 335 335 335 334 334 334 336 338 339 340 342 343 343 344 344 345 345 346 346 347 348 347 348 346 347 347 343 342 341 340 344 344 347 348 349 352 351 352 354 355 357 359 360 361 362 363 363 362 360 359 359 359 362 362 361 361 359 358 358 358 358 357 357 359 355
299 301 299 298 295 294 296 292 290 288 287 286 291 296 302 292 291 310 312 315 320 321 323 326 327 327 329 331 332 333 333 334 335 335 336 336 336 335 336 336 338 340 341 342 342 343 343 344 344 345 345 347 348 347 347 346 346 346 344 342 341 340 341 341 344 346 348 349 350 350 352 354 356 357 359 360 361 362 363 363 361 360 360 362 363 362 362 361 360 359 358 358 359 358 356 357 360
302 296 293 291 292 291 292 287 291 287 282 287 289 294 301 293 291 299 309 313 316 322 321 323 325 326 328 330 331 333 334 334 335 336 336 336 335 334 335 335 336 338 339 340 341 342 342 343 344 344 345 346 347 347 347 346 346 346 345 344 342 341 341 340 342 344 347 348 349 349 351 353 354 355 357 358 358 359 361 361 362 361 361 361 361 362 362 362 362 360 359 358 358 358 358 357 356
298 294 294 289 282 285 285 288 286 284 284 289 289 290 297 293 290 303 306 312 315 315 321 324 326 327 328 329 331 333 334 334 335 335 336 336 335 333 333 334 336 336 337 339 340 341 341 343 343 343 343 345 346 347 346 346 346 346 345 344 343 342 341 341 341 344 347 348 349 349 349 350 352 352 353 355 356 358 360 360 360 359 359 360 361 362 362 362 362 360 358 357 357 357 358 358 356
295 293 289 288 283 282 278 280 281 282 288 290 290 291 290 289 298 307 308 314 319 320 320 323 326 327 328 329 331 332 333 334 334 335 336 336 336 335 334 335 335 336 337 338 339 340 341 342 343 343 343 344 346 346 346 346 346 346 346 345 344 344 341 341 340 342 346 349 349 349 349 350 351 352 353 353 356 357 358 359 360 359 360 360 360 361 361 361 361 359 358 357 357 359 359 358 358
292 293 295 290 284 281 281 279 282 285 286 288 291 290 287 291 300 307 308 313 321 322 322 323 325 327 330 331 331 332 333 333 334 335 336 336 337 336 335 335 335 336 336 337 338 339 340 341 342 343 343 343 345 345 346 346 346 346 346 345 344 343 342 341 341 342 344 347 348 349 349 350 351 352 353 354 356 357 357 358 359 358 358 358 359 360 360 360 360 359 359 357 358 358 358 359 358
292 292 294 291 290 289 285 284 283 284 286 286 290 288 290 299 306 307 307 312 319 321 321 322 322 323 328 329 330 331 332 333 334 334 335 336 337 337 336 335 336 336 336 337 337 339 339 340 341 342 343 343 344 346 345 346 346 346 346 345 344 344 345 343 342 343 343 346 348 349 349 349 350 352 354 354 354 356 356 356 358 358 358 358 358 359 359 359 357 357 356 357 356 358 358 358 359
293 293 290 292 294 293 290 295 291 288 285 287 288 290 294 298 300 305 304 306 314 318 319 319 320 321 322 326 330 331 332 333 334 334 335 336 337 337 337 336 336 337 336 336 337 338 339 340 340 341 342 343 344 345 345 346 346 345 345 345 344 344 343 342 340 341 341 342 346 347 348 349 350 351 352 354 353 355 355 356 356 357 357 357 358 358 358 358 357 357 357 355 355 356 359 358 358
290 287 289 294 296 293 289 285 283 281 281 284 288 290 290 291 291 302 300 301 308 315 317 318 318 319 320 322 325 331 332 333 335 335 336 337 337 337 337 337 337 337 337 337 337 338 339 340 341 341 342 342 343 344 345 345 346 345 345 345 345 344 343 343 342 341 341 341 342 344 347 348 348 349 351 352 353 353 354 359 356 356 357 357 357 358 358 358 357 356 356 357 357 357 357 358 358
292 291 296 292 288 290 287 286 282 281 282 284 288 290 291 292 292 296 296 298 303 314 315 316 317 318 319 321 323 325 332 334 334 334 335 336 337 337 337 337 337 338 339 338 338 338 338 339 341 341 341 342 343 344 345 346 346 346 345 345 344 344 344 344 343 343 341 340 340 340 342 346 348 349 351 351 352 352 353 354 355 355 356 357 357 357 358 358 358 357 356 355 356 357 356 356 357
295 294 291 292 291 289 286 289 285 286 281 282 285 287 288 294 294 297 296 298 307 314 313 314 316 318 319 320 321 323 327 333 334 335 336 336 337 337 337 337 337 337 338 338 338 338 337 339 340 341 342 343 343 344 345 345 346 346 346 346 345 345 345 344 344 342 339 339 340 340 340 341 345 349 349 350 350 351 351 352 353 354 355 355 356 356 357 358 358 357 357 355 356 356 356 356 356
287 288 286 288 288 291 291 290 288 287 282 280 283 282 288 294 299 298 298 299 314 315 314 314 315 318 319 320 321 322 326 331 334 335 336 337 337 338 338 339 339 338 339 339 338 338 338 339 339 340 340 341 342 343 344 345 346 346 346 345 344 344 344 344 343 343 340 339 340 342 340 341 344 345 348 348 349 350 351 352 352 354 354 354 355 355 357 358 357 357 357 357 356 356 355 356 356
288 286 285 286 285 284 283 286 289 288 283 280 282 283 290 296 302 300 301 305 317 317 316 314 315 317 318 319 321 322 323 329 334 335 336 337 338 338 339 339 339 338 338 338 339 338 338 338 339 340 340 340 341 343 344 345 346 346 345 345 345 344 344 344 343 343 342 340 338 340 341 342 340 342 346 347 348 349 350 351 352 352 354 354 355 355 355 357 357 356 356 355 355 356 355 355 355
Wind_Speed
7 5 5 4 3 2 2 1 3 2 0 2 2 1 2 1 1 1 3 0 2 1 2 9 9 5 1 3 5 4 3 5 2 6 3 2 4 9 7 8 8 6 6 3 2 4 6 7 11 14 15 15 15 15 14 14 14 14 14 14 14 13 13 13 13 12 11 11 11 10 10 11 11 11 10 11 11 11 12 11 12 11 10 10 10 11 11 11 10 9 10 10 11 12 17 12 9
5 5 5 4 3 0 1 1 1 1 1 2 3 1 2 2 1 2 3 1 0 3 3 8 8 7 7 10 8 6 4 6 3 3 4 6 8 6 7 8 9 9 6 4 3 3 4 4 9 14 15 16 15 14 14 14 13 13 13 13 13 12 12 12 11 11 11 10 10 10 10 11 11 10 10 10 11 11 11 11 11 10 11 11 9 10 11 11 10 9 9 9 10 13 17 13 7
5 5 5 1 1 1 1 1 1 1 2 2 2 2 1 1 2 3 2 2 5 6 6 8 8 4 4 3 3 3 1 4 5 4 5 10 12 6 7 8 7 7 7 4 4 4 3 4 9 13 15 15 14 14 13 13 13 12 12 12 11 12 11 10 10 11 10 10 10 10 10 10 11 10 9 10 10 10 11 12 11 11 10 10 9 10 10 11 10 9 9 8 10 12 17 15 12
5 2 5 3 2 2 1 1 1 1 2 1 3 1 1 0 3 4 3 5 5 8 5 6 5 1 1 6 4 6 5 3 3 8 7 8 3 9 9 9 7 6 5 4 4 4 4 7 9 12 14 15 14 14 13 12 12 12 11 11 11 11 10 10 10 10 10 10 10 10 10 11 10 9 10 10 11 10 11 12 11 10 9 9 8 9 11 11 12 10 9 10 10 13 15 16 13
5 4 1 1 1 1 1 1 2 1 2 0 2 1 2 1 4 5 5 3 2 2 3 3 4 3 1 5 1 2 3 5 7 3 5 3 8 10 10 9 7 6 5 4 4 4 5 10 9 12 14 15 14 13 13 12 11 11 10 10 10 10 10 9 9 9 9 9 10 9 9 10 9 10 9 11 12 10 11 11 11 10 9 10 9 10 11 11 11 11 12 11 13 14 14 16 14
4 2 3 1 1 0 0 1 2 3 2 1 3 1 0 2 5 5 6 5 3 5 3 3 3 4 3 4 2 2 8 5 7 3 6 5 12 11 11 9 8 6 5 4 4 5 6 10 12 13 13 14 14 13 13 12 11 10 10 10 9 9 9 9 9 9 9 9 9 9 8 9 10 10 10 9 10 10 10 11 10 9 10 10 10 10 11 11 11 12 11 11 13 14 15 16 13
5 2 1 1 0 0 0 2 5 4 1 2 2 0 2 2 6 7 7 6 3 5 3 4 10 8 6 2 5 4 0 6 5 4 4 11 12 11 11 9 8 7 5 4 4 5 8 12 13 13 13 13 13 13 12 11 11 10 9 9 9 8 8 9 9 10 9 9 9 9 9 9 9 9 9 9 9 10 10 10 11 10 11 10 11 10 12 12 11 11 11 10 12 13 15 15 14
1 1 1 2 0 1 1 2 5 2 2 1 1 2 3 5 6 6 6 3 5 2 3 5 3 6 4 1 3 3 4 4 7 9 11 12 12 11 10 9 9 8 6 4 4 4 10 13 12 13 13 13 12 12 12 11 10 9 9 9 8 8 8 9 10 9 9 8 8 9 9 9 11 8 9 8 8 9 10 10 11 11 10 11 11 11 11 13 11 11 12 10 11 13 14 13 12
1 1 1 0 0 2 2 3 4 1 3 0 2 2 3 3 3 4 4 3 4 4 5 4 2 5 3 7 4 3 4 10 10 11 11 13 13 11 8 9 9 8 7 5 4 5 6 12 13 13 12 11 12 12 11 11 10 9 9 9 9 9 9 8 9 9 9 9 8 9 8 9 11 8 8 8 8 9 10 10 9 11 10 10 11 11 10 12 13 13 13 10 11 12 15 15 14
1 0 0 0 1 2 2 3 2 2 4 2 2 3 4 2 2 2 7 5 4 6 3 2 4 8 8 8 6 4 5 12 12 11 10 11 12 10 10 9 9 9 7 6 4 5 4 12 14 12 12 12 12 11 11 11 10 10 9 9 9 10 9 9 9 9 8 8 8 8 10 10 8 7 8 7 8 9 9 9 10 10 11 10 11 11 10 11 11 15 15 12 10 11 14 14 15
2 1 1 1 0 2 2 3 1 2 3 2 3 1 1 0 4 3 1 6 5 4 4 6 9 11 7 5 3 5 9 13 13 13 11 12 11 11 9 8 8 8 7 6 5 4 5 6 14 13 12 12 11 11 10 10 10 9 9 9 9 9 8 9 8 8 8 8 8 9 10 11 8 7 7 8 6 8 9 10 10 11 10 10 10 10 10 11 11 13 15 14 13 12 12 14 15
1 1 1 1 2 2 2 2 2 0 1 2 1 1 1 1 3 4 6 9 3 4 4 3 5 9 9 6 4 8 11 11 10 11 11 10 9 10 9 7 8 7 7 6 5 4 4 6 6 10 11 11 11 10 10 9 9 9 9 9 9 8 9 9 9 8 8 8 8 10 10 9 7 7 7 9 9 9 10 10 10 10 10 10 10 10 10 10 11 12 13 15 14 12 11 11 13
2 1 1 1 1 2 2 2 0 4 3 1 4 1 1 2 2 6 4 5 4 7 6 1 12 3 5 4 5 10 12 10 10 12 11 9 9 8 8 8 7 7 7 5 5 5 5 4 3 4 7 11 10 10 9 9 9 9 10 9 9 8 9 8 8 8 8 8 8 9 13 8 7 8 7 6 9 9 9 10 10 11 10 9 9 10 10 9 10 10 11 13 16 13 12 12 11
2 1 1 1 1 2 2 1 0 2 1 3 2 2 1 1 3 3 6 7 5 2 0 11 4 6 9 8 7 7 8 11 12 11 9 10 9 8 9 7 8 8 6 6 5 4 4 3 3 3 4 4 4 5 8 9 9 9 9 9 9 9 9 8 8 8 8 8 8 8 11 11 10 9 8 7 9 8 9 10 10 10 10 9 9 10 11 9 9 9 10 11 13 15 17 14 13
3 0 1 1 3 2 2 1 3 1 2 2 3 3 1 3 3 4 3 9 1 1 4 4 7 3 5 9 9 9 10 12 12 11 10 10 10 9 9 7 7 7 6 6 5 5 4 4 4 4 4 5 5 3 1 5 9 9 9 9 8 8 8 8 8 8 8 8 9 7 10 8 9 7 8 7 8 10 9 9 10 10 10 10 10 10 10 9 9 10 10 10 9 11 13 17 18
2 0 0 2 3 2 2 2 0 1 1 3 3 2 6 4 3 2 2 1 3 1 2 3 1 1 6 4 7 11 14 13 12 12 11 11 9 8 8 8 6 6 5 5 5 3 4 5 4 4 5 5 5 4 3 3 6 9 8 8 9 8 8 8 8 8 8 8 8 7 9 8 8 7 6 6 9 10 9 7 9 9 9 10 10 9 9 9 9 9 9 10 9 8 9 11 13
1 1 1 1 3 2 2 1 3 2 2 4 6 5 3 4 1 2 2 2 7 2 3 2 0 1 9 5 13 14 14 12 12 13 12 9 8 7 6 6 6 5 4 4 3 4 4 5 4 4 5 5 5 4 4 3 4 7 6 7 7 8 7 7 8 8 7 6 6 7 8 7 6 4 4 4 6 5 8 8 9 9 9 9 9 9 9 9 9 9 9 9 10 10 11 10 10
1 2 1 3 3 2 3 2 4 1 7 7 7 5 7 7 3 2 3 7 4 4 5 3 5 9 9 13 15 14 12 13 13 14 11 9 7 8 8 7 6 7 6 5 3 4 5 4 5 5 4 5 5 4 3 2 3 4 5 4 2 5 5 5 4 5 4 5 5 5 5 5 5 4 4 5 4 4 5 9 9 9 9 9 9 9 9 9 8 8 9 9 10 8 10 5 5
3 0 0 4 3 4 2 2 2 5 3 8 6 4 4 4 7 4 6 5 5 6 4 8 10 11 13 14 16 14 13 13 13 12 13 12 9 11 9 8 7 7 7 5 4 6 5 4 4 5 4 4 5 5 4 3 4 4 4 4 3 4 5 5 5 5 5 5 4 5 5 5 4 4 3 4 5 7 6 9 9 8 8 9 9 9 8 8 8 8 9 9 9 9 5 4 4
5 2 3 4 5 4 3 3 4 1 10 8 8 4 5 7 4 3 6 7 6 9 10 8 10 12 14 15 15 14 13 13 12 12 12 11 10 10 10 10 8 7 7 6 6 5 6 5 5 5 5 4 5 4 4 4 3 4 4 4 4 4 4 4 5 5 5 5 5 4 4 4 5 4 5 7 6 5 6 9 11 9 9 9 10 6 7 8 9 9 9 8 5 3 3 3 4
2 3 5 4 1 2 2 1 1 4 7 9 7 5 6 7 6 5 10 9 3 4 5 12 15 15 16 16 16 14 14 13 12 12 11 10 8 7 7 7 7 6 6 6 5 6 6 7 6 5 4 4 5 4 5 4 4 4 4 4 4 4 4 4 4 5 5 5 5 4 4 4 4 4 4 4 4 4 5 5 4 4 4 5 7 5 4 4 5 5 4 4 3 3 4 3 3
0 7 6 6 5 4 3 0 4 6 5 7 6 10 8 5 4 5 13 11 9 9 8 8 13 16 18 17 15 13 14 13 13 12 12 12 12 10 8 6 5 5 6 7 8 7 8 7 7 5 5 4 5 5 5 5 5 4 4 4 4 4 4 4 4 4 4 4 4 4 4 4 4 4 4 4 4 4 5 4 4 4 4 4 4 4 4 4 4 3 3 3 3 3 3 3 3
5 3 7 8 8 7 1 2 4 9 6 7 9 4 7 6 5 5 10 3 3 5 5 12 13 15 17 15 15 14 14 14 14 13 12 12 11 9 9 8 8 7 6 7 7 7 7 7 6 6 5 4 5 5 4 4 4 4 4 4 4 4 4 4 4 4 3 4 4 3 4 4 4 4 4 4 4 4 4 4 4 4 4 4 3 3 4 3 3 3 3 3 3 3 3 3 3
5 6 1 7 5 10 5 4 6 4 10 9 3 7 8 8 7 4 7 2 4 4 6 12 13 14 16 16 14 14 13 13 13 12 11 11 11 10 9 9 7 5 6 8 8 7 7 8 7 7 5 5 4 5 5 5 4 4 4 4 4 5 4 4 3 3 3 3 3 3 4 3 4 4 4 4 4 4 4 3 3 4 3 3 2 2 3 3 3 3 3 3 4 3 3 2 3
5 7 6 7 4 7 5 6 6 6 4 5 7 10 9 7 5 8 5 5 5 5 7 12 14 14 13 14 15 14 12 11 11 11 9 7 8 8 7 6 6 6 8 8 8 8 8 7 8 8 6 5 4 5 6 5 4 4 4 4 4 5 4 3 3 3 3 2 3 4 4 4 3 3 4 3 4 4 3 3 3 3 3 2 2 2 2 2 2 2 2 3 2 3 2 2 2
7 12 7 5 5 4 5 6 7 7 4 6 8 5 2 1 6 5 5 6 5 6 8 13 15 15 14 14 15 14 13 13 12 12 12 9 9 10 9 7 7 8 7 7 7 7 7 7 8 8 6 5 5 5 4 5 4 5 4 4 4 4 4 4 4 3 3 3 3 3 3 3 3 4 3 3 4 3 3 3 3 2 2 1 1 2 1 1 1 2 2 2 2 2 2 1 1
2 3 5 8 9 5 7 11 7 6 4 9 9 5 3 1 5 3 5 7 6 9 12 13 16 16 14 13 13 12 13 14 14 11 10 9 9 10 9 8 8 8 7 8 7 6 6 7 7 7 6 7 5 5 4 5 5 4 4 4 4 4 4 4 3 3 3 3 3 3 4 3 3 3 4 3 3 3 3 2 2 1 1 1 1 1 1 0 1 1 2 2 2 1 1 1 0
6 5 5 5 5 2 6 6 9 7 3 5 4 3 2 1 2 4 7 9 9 12 13 14 14 15 13 13 13 11 11 10 10 11 13 13 11 10 11 10 10 9 9 9 7 6 7 8 8 7 7 6 6 5 5 5 5 5 4 4 4 4 4 4 4 3 3 3 2 4 3 3 3 3 4 3 3 2 2 2 2 2 0 1 0 1 1 1 1 1 1 1 1 1 1 1 1
5 3 4 4 4 6 3 7 7 5 2 5 7 6 1 3 5 2 10 10 9 13 14 14 14 14 13 12 11 11 11 11 10 10 12 10 8 9 11 9 9 9 6 8 7 8 9 8 8 8 7 6 6 6 5 5 4 4 4 4 4 4 4 4 3 3 3 3 2 3 4 4 3 4 4 4 3 2 2 1 1 1 1 1 1 2 1 0 0 2 2 2 2 2 2 2 1
3 1 2 2 3 1 2 3 5 3 2 8 7 3 6 9 7 0 12 11 10 13 13 13 12 13 13 12 11 11 11 11 11 11 10 10 10 9 10 9 9 8 7 6 8 9 7 6 6 6 7 7 7 6 5 5 5 4 4 4 3 4 3 3 3 3 3 3 2 3 4 4 3 3 4 3 3 3 2 2 2 2 1 1 1 0 1 0 1 2 1 2 1 1 1 1 1
1 0 2 0 1 2 3 2 7 3 3 9 1 1 6 4 7 4 10 12 14 14 13 14 12 13 13 12 10 12 13 12 13 12 11 11 9 9 9 9 9 9 7 7 9 9 8 7 7 6 8 7 8 6 6 6 5 5 5 4 4 4 3 3 3 3 3 3 2 2 3 3 4 4 4 4 3 3 3 2 2 2 1 1 0 0 0 1 1 1 1 1 1 1 1 1 1
2 0 2 2 1 3 1 4 9 6 2 8 2 3 7 4 6 8 9 11 12 13 13 13 13 13 13 12 11 12 13 12 12 12 12 12 11 10 11 11 10 10 10 9 8 8 8 8 8 8 8 8 8 7 6 6 6 5 5 4 4 4 4 4 4 4 3 3 2 2 3 3 4 4 4 4 4 3 3 3 3 2 1 2 1 1 1 1 1 1 0 1 0 1 1 2 1
4 1 2 0 1 2 1 1 6 1 5 4 7 4 5 2 4 9 10 12 12 12 12 12 12 14 14 13 10 11 11 12 11 12 13 12 11 10 10 11 11 11 10 10 10 9 9 9 9 9 10 10 8 8 6 6 5 6 5 5 5 4 4 4 4 3 3 3 3 3 3 4 3 4 4 4 4 3 3 3 2 2 2 2 2 2 1 0 0 1 1 0 1 0 2 3 3
1 2 1 1 1 1 0 1 7 2 9 5 7 4 3 2 1 8 10 12 12 12 14 13 11 12 13 12 11 12 12 12 13 13 13 13 11 12 11 11 12 11 11 11 11 11 10 9 8 9 8 8 7 7 6 6 5 5 5 5 4 5 5 4 3 4 4 4 4 4 4 4 3 3 3 4 3 3 3 2 2 2 2 2 1 2 1 1 1 1 1 0 1 0 2 3 3
2 0 0 1 1 1 2 3 5 5 5 7 7 8 10 5 2 6 10 11 11 12 14 15 13 11 12 12 12 13 12 14 14 13 14 13 12 12 11 11 11 11 10 12 11 10 8 7 7 7 8 8 8 7 6 5 5 4 4 4 5 5 4 4 4 4 4 4 4 4 4 4 3 3 3 3 4 3 3 2 2 2 2 2 1 1 1 1 1 1 1 0 2 1 1 1 1
4 3 2 1 2 1 1 3 2 12 6 6 7 9 11 11 3 4 8 11 12 10 10 11 12 12 11 12 12 12 13 14 12 13 13 12 11 12 11 10 11 11 10 10 11 11 10 8 7 6 7 8 6 6 6 5 5 5 5 3 4 4 4 4 4 4 4 4 4 5 5 4 4 4 3 3 4 3 3 3 3 3 3 3 2 2 2 1 2 1 1 2 2 1 1 1 1
4 3 2 0 0 4 4 3 3 9 4 7 10 13 11 10 6 8 9 9 8 9 12 11 12 13 12 11 12 13 14 14 12 13 13 14 14 12 11 11 10 10 10 11 11 11 12 11 9 10 8 8 7 7 7 7 6 6 4 6 6 5 5 4 4 4 4 4 5 5 5 4 4 4 4 4 4 4 3 3 3 3 2 2 3 3 2 1 1 1 1 2 2 3 2 1 2
2 2 1 2 1 4 3 2 1 6 6 7 9 7 9 9 4 7 8 9 12 13 13 13 14 15 13 13 13 14 12 8 10 11 12 13 12 13 11 10 10 11 9 10 11 12 12 12 11 9 7 8 8 8 7 7 7 7 6 6 5 5 5 5 5 4 5 4 5 5 5 4 5 4 4 4 4 4 3 3 3 3 3 2 2 0 1 0 1 2 2 2 2 2 1 1 1
1 2 1 0 4 5 7 4 3 4 7 5 2 8 11 11 8 7 11 14 13 15 16 18 17 15 13 12 13 12 10 11 12 13 13 13 15 14 12 10 11 13 13 13 12 11 11 11 10 9 8 9 8 8 7 8 6 5 6 5 6 4 3 4 5 5 4 5 5 5 5 5 5 4 4 4 4 3 4 3 3 3 3 2 1 2 2 2 1 0 1 1 2 1 1 1 2
2 2 2 5 3 1 3 1 2 2 6 4 5 8 9 7 5 9 11 14 12 13 12 10 12 16 16 16 14 13 13 13 14 15 15 14 14 14 12 11 11 11 11 11 12 12 10 10 10 10 9 9 8 8 8 6 5 4 4 5 5 5 4 4 3 3 4 4 5 4 4 4 5 5 5 4 4 4 4 4 3 3 3 3 3 2 2 2 1 1 1 1 1 2 2 2 1
2 4 3 2 2 3 5 4 3 2 5 3 2 2 5 4 5 6 9 12 10 9 8 8 9 11 13 9 7 9 13 13 13 14 14 14 14 15 14 13 12 12 12 12 12 12 9 12 11 12 10 10 9 8 8 6 6 5 4 4 4 4 3 4 4 3 5 5 4 4 5 5 5 5 5 5 5 5 5 4 5 4 4 3 3 3 3 4 3 2 2 2 2 1 2 1 1
3 4 7 6 3 4 5 3 5 7 6 2 6 2 4 4 8 10 7 8 11 9 12 13 13 13 11 12 13 11 11 12 14 15 15 15 15 14 14 14 13 13 13 12 13 13 12 11 11 11 9 9 9 9 8 8 8 8 7 7 6 5 5 5 7 7 5 5 6 4 4 5 5 5 4 5 5 4 5 5 5 5 4 3 3 4 3 2 3 3 3 3 2 1 0 1 2
1 6 9 8 6 5 3 0 2 2 1 2 1 5 5 3 4 6 6 10 13 8 14 15 14 13 13 13 13 13 13 12 12 12 13 15 15 15 15 15 14 14 13 11 12 12 13 12 12 12 10 9 8 8 9 8 7 8 10 10 9 9 8 6 6 6 6 6 4 5 5 5 5 5 4 5 5 5 5 5 5 5 4 4 3 3 3 4 3 3 2 3 2 2 2 0 2
3 2 6 7 7 6 5 3 5 6 1 4 0 4 1 4 5 4 5 8 10 9 11 14 15 15 16 15 14 13 14 14 13 14 14 16 16 17 17 16 15 15 13 12 12 11 13 12 12 12 10 10 9 9 9 9 9 9 9 8 7 8 8 7 6 6 5 5 5 5 5 5 5 5 5 5 5 5 5 5 5 4 4 4 4 4 4 3 2 2 3 3 2 3 3 3 2
4 4 9 7 7 7 4 5 6 2 1 7 3 0 0 2 4 2 7 6 8 13 14 14 16 16 16 17 16 15 15 15 15 14 15 16 17 17 16 16 15 14 13 13 12 12 12 11 12 11 10 10 9 11 11 10 9 9 9 8 7 7 6 5 5 5 5 5 6 5 5 5 5 5 5 5 5 5 5 5 5 5 4 4 4 3 3 3 4 3 3 3 3 3 3 2 1
4 7 4 3 3 2 4 5 4 2 1 4 2 2 1 5 5 2 1 5 11 16 16 15 15 16 17 16 16 16 14 14 15 16 16 16 16 17 16 15 15 15 13 12 12 11 11 11 11 12 12 10 10 11 11 11 10 9 8 8 9 6 4 4 5 6 6 5 6 6 5 5 5 5 5 5 5 5 5 5 5 5 5 4 4 4 3 3 3 3 4 4 3 3 2 3 3
3 7 3 1 1 1 3 4 3 2 2 6 6 5 4 1 2 4 9 8 15 13 10 10 11 13 16 17 18 16 15 15 14 15 15 15 15 15 14 16 16 14 12 13 12 12 12 12 12 13 13 10 10 11 12 12 10 9 9 9 9 8 7 6 6 5 5 6 7 6 6 6 5 5 5 5 6 5 5 5 5 5 4 4 4 4 4 4 3 4 3 3 3 4 3 3 3
4 1 3 4 1 3 2 2 2 2 3 8 2 6 5 4 3 7 8 14 12 8 11 15 16 16 15 15 16 17 16 15 15 15 15 15 13 13 14 15 15 15 13 13 12 12 12 12 12 14 12 12 11 11 12 12 11 10 8 9 9 8 9 7 8 9 8 8 8 7 6 5 5 5 5 5 5 5 5 5 5 4 4 4 4 4 3 3 3 2 2 3 3 3 2 2 2
6 3 3 5 2 2 2 1 2 4 4 1 1 4 5 3 4 4 5 9 14 10 9 9 13 15 15 16 17 16 15 15 15 15 14 14 14 14 15 16 14 14 14 15 15 13 12 12 13 14 14 13 12 12 13 13 12 11 11 10 9 8 9 9 8 8 8 8 7 7 6 7 5 5 6 5 6 6 5 5 5 5 5 5 5 4 4 4 3 3 3 3 3 4 4 4 3
7 6 6 5 2 2 3 2 1 1 7 2 0 3 1 2 1 6 7 9 8 11 11 8 8 10 13 14 15 14 15 16 15 15 15 15 15 14 16 15 16 15 16 16 15 14 12 12 13 14 14 13 12 12 13 13 13 12 11 10 9 8 8 9 8 9 8 8 7 8 8 7 7 7 7 8 6 6 5 6 5 5 5 5 5 5 5 4 4 4 4 4 4 4 3 4 4
3 1 10 8 5 3 3 3 5 7 8 1 3 1 4 5 1 3 5 6 8 10 11 12 6 5 9 9 9 12 13 13 14 14 15 16 16 16 15 16 16 16 17 16 15 14 13 13 13 14 13 12 12 13 12 14 12 12 10 10 9 8 9 8 8 8 8 8 7 8 8 7 7 7 8 7 6 6 7 6 6 6 5 5 5 5 4 4 4 3 3 4 3 3 3 3 3
2 3 5 5 5 4 1 6 6 4 3 2 1 2 1 3 6 4 6 9 14 15 16 15 15 14 3 7 9 11 13 14 14 15 16 17 16 16 15 15 15 15 17 16 16 15 14 14 14 15 15 15 14 13 13 13 13 11 11 11 11 10 8 7 6 6 6 7 8 8 8 8 7 6 6 6 7 7 7 7 6 6 5 5 5 5 5 4 4 4 3 3 4 2 3 4 4
3 2 3 3 2 5 5 1 1 3 6 4 1 2 5 4 2 11 14 12 16 18 18 16 15 14 12 3 8 12 13 12 13 14 15 16 16 15 16 16 15 16 16 17 16 16 16 15 14 15 14 13 14 15 14 13 12 11 12 11 10 9 10 10 9 9 9 7 7 7 7 8 6 6 6 6 6 7 6 7 7 6 6 5 5 5 5 5 5 4 4 4 4 3 3 5 3
1 1 3 3 2 3 3 3 3 3 5 2 3 2 5 7 2 11 15 15 15 17 16 15 13 14 13 11 9 8 12 13 13 13 13 14 15 17 16 15 17 18 19 18 18 16 16 16 16 17 15 15 14 14 13 12 12 12 11 11 11 11 11 11 9 9 7 6 6 6 5 5 7 7 6 5 6 7 7 7 7 7 6 5 6 5 5 5 5 4 5 4 4 3 4 3 3
5 4 1 3 1 1 2 5 1 3 2 2 2 1 2 3 5 8 16 16 14 14 14 16 18 17 14 13 13 11 10 12 13 14 14 14 14 14 15 17 18 18 18 18 17 17 15 15 16 17 18 18 17 14 14 12 12 10 10 12 13 12 11 10 9 7 7 7 8 8 8 8 6 5 6 6 6 6 6 7 7 7 6 6 6 6 5 5 5 5 4 4 4 3 4 4 3
5 2 5 4 4 2 3 2 2 6 3 4 0 4 1 2 4 7 10 10 10 12 13 13 14 13 14 12 13 12 9 13 14 14 15 15 16 17 18 17 17 17 16 16 17 15 17 17 17 16 15 14 15 16 15 14 13 11 11 10 10 10 10 10 9 8 8 9 9 9 9 8 8 6 6 6 6 6 7 7 7 6 7 6 6 6 5 5 5 5 5 4 4 4 4 5 4
9 11 7 7 3 2 1 2 2 1 5 4 6 2 1 3 4 7 7 8 8 12 11 11 11 13 12 14 13 13 10 11 12 15 15 16 17 16 16 15 15 16 15 14 15 17 17 16 16 17 17 17 16 15 13 13 11 12 12 12 12 11 12 10 10 10 10 9 8 8 8 8 5 6 6 7 7 7 7 7 7 7 7 7 7 6 5 5 5 5 5 5 5 5 6 5 4
7 4 6 3 6 4 2 1 2 2 3 3 6 4 1 3 4 6 7 5 8 9 10 9 11 13 13 13 15 15 14 11 6 8 6 9 10 11 12 13 12 13 14 16 16 15 15 16 16 16 16 15 16 15 14 13 11 11 13 12 12 11 11 10 11 11 11 10 9 9 8 6 8 7 7 8 8 6 6 7 7 7 7 7 7 7 5 5 6 6 5 4 5 6 6 6 5
Wind_Direction
145 115 101 120 120 156 134 168 256 171 246 259 292 156 217 63 116 151 81 144 96 14 102 111 117 129 167 180 144 110 318 143 186 132 205 161 135 122 122 123 124 132 140 144 169 159 141 153 149 136 129 127 127 127 126 124 121 120 119 118 116 113 109 107 107 109 111 111 107 107 105 104 104 103 106 108 107 107 106 106 99 97 96 98 98 97 105 107 107 107 112 111 109 109 103 98 98
119 111 108 120 142 213 139 276 221 321 123 294 248 153 275 62 130 145 139 163 135 127 127 104 96 92 64 102 128 121 43 31 29 93 82 118 111 99 128 127 135 139 142 151 158 124 131 148 153 134 131 130 130 129 126 124 121 120 118 114 109 105 104 105 107 110 111 109 107 107 106 104 103 102 105 106 106 105 103 102 104 104 100 94 94 101 101 103 105 110 107 114 118 119 109 109 104
119 128 120 151 166 159 104 143 247 137 307 304 271 217 56 185 164 136 96 33 112 116 116 107 94 55 93 99 54 30 224 41 95 115 114 138 118 142 138 131 131 132 139 141 134 124 130 155 147 133 133 131 130 128 125 123 120 117 114 111 109 106 107 109 111 110 109 108 108 108 105 106 104 105 110 108 107 105 101 93 86 89 93 95 104 111 110 104 104 104 112 119 124 116 107 108 97
127 153 137 171 92 307 124 187 245 210 236 244 303 172 277 160 143 137 82 107 121 125 126 123 101 262 84 72 108 77 84 111 137 136 135 160 134 138 137 133 130 129 123 128 137 130 135 154 156 137 133 131 129 126 124 122 120 119 118 119 115 113 114 114 112 110 109 111 109 104 102 103 103 105 113 110 106 100 99 99 101 102 106 102 96 103 106 111 114 120 118 113 101 102 105 106 116
136 174 155 18 132 15 125 260 295 252 235 42 259 293 279 188 126 125 85 51 53 89 70 114 89 351 81 108 128 136 194 98 139 155 120 93 116 132 132 131 131 129 127 131 128 131 143 154 155 137 131 128 127 125 123 122 123 122 121 119 118 118 117 117 114 112 113 113 108 103 103 104 113 117 101 110 106 108 104 108 105 106 103 107 108 98 97 100 105 106 107 113 111 107 107 113 120
90 92 261 301 47 143 159 332 276 241 229 161 254 187 325 134 137 112 100 77 71 48 19 92 123 153 61 20 10 91 129 149 167 133 140 133 132 133 130 130 128 126 121 111 125 136 152 158 148 133 129 128 128 126 126 126 126 127 126 123 121 123 124 122 118 118 119 114 108 104 99 99 96 95 107 100 103 109 107 104 110 104 101 97 104 100 93 87 85 94 105 112 107 110 113 114 115
144 151 226 206 205 184 220 253 271 265 255 196 248 307 158 133 120 119 123 107 20 68 349 105 111 105 85 109 70 69 99 118 139 150 119 135 129 129 131 129 125 122 116 117 127 138 155 153 137 131 130 131 130 129 128 130 131 132 130 127 127 129 130 127 125 124 122 115 107 103 99 99 98 97 104 108 105 105 111 115 110 104 105 110 99 95 85 75 82 93 97 99 111 113 117 118 122
143 328 184 79 260 64 251 266 268 239 293 251 339 247 138 137 137 132 152 156 155 120 94 118 100 88 76 68 121 100 54 63 90 101 121 128 129 130 131 131 129 128 123 116 117 132 145 140 137 136 134 135 134 132 132 135 136 137 136 135 133 131 132 129 131 127 121 115 110 104 100 98 97 109 113 113 111 101 100 101 102 106 98 95 97 92 89 98 93 90 99 112 108 116 112 108 113
20 91 19 311 312 194 295 271 271 172 268 344 237 291 129 133 164 139 93 78 94 86 123 112 116 84 121 97 84 95 72 96 96 114 128 129 131 134 133 133 133 130 125 118 120 132 138 143 138 136 133 138 137 136 139 141 143 143 142 139 134 131 131 138 130 124 120 120 116 107 108 99 100 112 111 108 115 113 105 100 101 97 96 91 90 86 85 87 97 103 100 99 104 110 115 123 122
100 359 121 41 331 336 299 293 287 31 305 260 196 173 136 150 136 112 128 103 111 127 67 17 86 113 119 106 113 103 120 111 116 119 129 131 131 130 130 131 130 129 127 123 122 129 143 145 139 139 145 147 142 143 145 146 146 145 142 140 143 139 140 135 126 125 125 123 115 109 96 89 94 102 112 113 111 102 101 104 98 94 90 87 85 84 80 83 88 95 99 89 86 94 107 111 116
85 196 163 357 68 296 252 288 8 15 290 257 75 31 68 159 123 75 45 110 125 114 110 106 84 118 114 101 66 98 121 119 128 138 140 135 131 129 127 125 125 125 127 123 121 113 128 139 142 151 155 144 146 147 149 149 148 147 144 146 143 139 136 129 128 127 126 122 115 106 95 104 122 117 117 117 106 111 107 99 96 92 91 90 85 83 81 81 79 82 95 104 94 90 94 105 108
360 93 32 107 275 218 259 277 349 241 314 195 74 175 313 119 105 105 124 123 131 116 142 184 139 123 100 125 129 131 126 123 130 135 138 133 127 125 122 121 121 120 116 116 107 115 127 127 153 150 144 148 148 151 152 151 150 150 147 144 140 143 137 133 130 130 128 123 118 111 104 104 110 117 125 130 134 112 108 106 99 94 93 90 86 82 79 77 81 83 93 104 107 101 95 97 98
284 76 116 140 225 161 262 291 293 128 273 70 145 214 39 148 152 135 105 94 107 118 149 172 144 160 112 138 115 127 131 129 134 141 138 133 127 123 118 119 118 117 116 108 108 114 128 130 133 136 149 150 152 153 153 152 152 148 145 141 142 143 135 135 130 132 131 128 122 114 118 120 118 126 135 119 109 105 113 107 100 96 92 89 85 84 78 71 65 77 84 94 104 107 104 94 86
255 193 130 301 274 268 253 241 278 232 51 127 93 138 235 99 105 117 120 109 131 109 88 135 132 117 101 118 134 141 137 139 139 139 134 126 121 121 121 118 121 120 115 114 112 122 118 112 103 112 125 111 106 147 150 155 149 145 146 143 142 143 136 135 133 138 136 133 128 124 116 133 140 131 116 109 106 117 101 98 101 95 90 88 86 82 78 73 76 73 77 90 107 118 120 118 121
241 79 356 270 307 322 237 168 213 218 125 168 150 148 138 38 83 103 106 131 101 287 122 70 147 105 189 158 157 163 147 147 141 136 127 120 117 117 119 117 115 117 118 122 118 121 112 109 102 97 100 93 106 102 105 145 147 146 146 145 145 140 137 135 140 140 140 137 130 125 117 120 107 91 110 123 112 95 95 97 96 93 91 87 84 82 87 82 80 80 84 75 84 109 123 137 139
201 119 323 299 296 302 268 181 187 93 162 148 147 141 84 55 358 97 33 332 127 2 56 136 261 320 146 156 138 141 141 145 139 128 123 120 116 114 117 119 119 116 118 119 124 116 106 101 90 97 107 108 113 112 115 107 150 147 149 146 148 144 139 141 144 142 142 137 128 130 111 102 99 117 89 73 87 95 92 93 97 97 94 90 84 81 83 81 82 82 76 83 87 86 100 101 99
153 64 272 351 294 190 266 176 142 223 138 127 150 166 148 132 17 42 307 87 107 68 36 53 231 66 142 113 131 133 142 139 130 127 123 122 127 125 122 123 125 126 122 121 129 119 107 106 101 104 113 116 114 118 108 114 140 142 138 136 146 137 138 143 147 142 134 125 124 106 69 77 89 62 73 77 86 96 102 101 99 97 98 94 89 86 82 83 81 71 69 69 73 67 68 69 101
67 217 180 266 235 192 234 202 190 177 143 156 163 195 139 131 154 97 86 56 59 63 72 75 62 81 100 115 121 137 142 135 136 135 136 136 140 140 143 146 145 154 143 134 127 125 120 124 124 115 113 112 111 108 112 107 109 106 66 104 109 127 138 116 91 74 82 74 99 83 65 69 75 64 63 73 56 64 87 94 91 97 96 95 94 88 84 83 86 92 82 77 77 69 49 36 29
235 19 119 258 201 240 182 255 160 140 163 155 156 182 155 134 134 180 128 125 123 105 91 99 87 95 109 118 133 142 142 139 141 142 145 148 154 154 155 152 153 149 153 144 145 150 146 135 125 121 122 121 110 106 108 100 78 81 75 81 86 91 98 88 80 73 62 78 77 70 68 69 67 66 77 88 81 76 81 88 97 98 99 96 93 88 82 78 85 88 80 68 59 51 41 41 42
212 258 268 245 224 260 264 211 202 23 133 145 147 178 163 146 137 185 144 144 154 151 139 121 125 132 131 137 142 143 144 144 145 147 151 155 158 156 157 160 159 161 155 156 154 159 147 144 131 130 141 126 107 105 102 102 88 87 83 72 83 82 77 79 76 80 77 81 78 71 73 69 61 54 83 75 61 39 56 67 71 68 74 80 68 54 61 77 71 76 69 58 52 48 52 43 63
183 186 222 238 228 302 316 100 151 94 135 141 148 147 129 171 143 168 139 129 191 199 182 158 151 146 143 149 149 147 150 150 148 152 154 157 157 157 157 160 159 151 152 150 154 160 153 156 143 140 138 123 111 107 115 110 97 94 85 93 93 87 88 78 78 81 86 85 82 79 83 75 65 67 69 53 56 56 61 62 51 55 65 48 55 57 52 45 48 46 35 44 43 41 59 57 66
64 229 246 274 305 313 280 89 96 110 88 124 143 159 171 116 125 161 159 164 190 187 171 147 146 146 148 154 153 151 155 155 154 158 164 166 165 161 154 142 131 128 146 160 169 160 162 161 156 146 141 124 118 125 130 134 123 115 103 105 97 85 91 88 79 83 86 84 91 92 81 79 70 69 62 63 48 61 63 63 59 66 54 52 53 60 46 46 39 36 35 33 20 48 60 59 48
255 269 253 246 252 260 242 140 140 130 135 139 166 172 111 157 160 175 185 165 69 131 141 146 149 152 150 150 151 158 160 161 160 165 165 168 166 163 160 156 156 157 162 162 164 162 162 161 158 152 145 124 116 126 119 113 117 115 111 116 109 104 90 93 86 82 86 98 95 97 95 89 82 79 73 66 58 61 71 63 70 60 67 57 46 65 52 33 38 31 29 17 2 25 49 59 62
223 263 247 264 226 240 216 157 153 147 147 163 145 132 157 148 159 172 185 69 116 88 123 146 146 149 150 152 160 161 163 163 163 164 169 172 168 165 162 159 154 139 152 161 167 164 165 169 160 160 145 134 128 131 124 124 120 121 138 130 106 132 111 98 94 95 94 94 111 98 98 96 105 92 84 76 71 68 72 70 76 70 63 58 44 70 52 36 27 32 15 4 10 10 4 43 66
220 257 244 260 242 243 216 153 149 135 143 111 133 163 186 179 157 140 183 140 118 119 134 140 147 151 156 154 159 160 162 162 162 163 163 165 165 152 153 148 149 150 164 167 166 168 168 168 161 161 157 143 136 137 135 127 129 123 125 119 131 147 115 112 116 111 109 118 109 108 112 103 93 100 96 86 85 82 79 77 66 77 60 47 50 47 50 21 20 18 10 352 1 356 350 359 53
205 232 256 276 268 251 187 146 152 148 130 136 143 185 115 285 98 165 156 151 132 128 138 144 149 156 163 164 163 164 166 167 163 166 169 163 165 161 168 165 160 167 169 163 164 169 165 159 165 161 159 147 145 141 134 133 136 136 134 128 156 135 136 124 124 122 134 130 120 119 114 113 117 122 107 90 99 97 92 86 86 61 68 40 48 22 52 52 345 347 340 340 338 4 348 328 38
197 254 250 260 268 253 182 153 159 150 141 157 160 141 137 165 152 204 157 153 136 136 149 150 157 163 165 167 165 167 167 172 171 160 158 168 174 173 170 167 171 169 157 171 171 169 164 160 162 157 156 167 146 151 142 138 139 140 140 130 152 137 145 136 130 130 142 142 131 135 124 129 123 119 113 116 97 114 102 101 87 72 42 27 34 349 26 194 260 256 302 314 317 341 13 324 51
307 282 302 311 326 206 147 121 142 135 140 171 125 96 68 156 329 229 159 152 154 147 154 158 162 165 168 167 166 168 171 170 165 167 172 175 180 177 175 176 174 166 168 175 174 165 165 167 163 158 161 165 164 160 156 145 150 149 145 133 151 142 147 141 139 138 150 143 122 147 139 143 133 118 124 126 135 126 123 104 93 87 354 349 242 282 329 281 276 296 327 315 32 48 37 38 27
279 327 321 329 29 48 110 142 164 153 118 148 122 74 303 210 222 198 149 147 156 149 157 163 164 168 167 169 162 171 175 172 173 178 180 180 178 180 179 176 170 167 169 169 168 169 172 167 162 162 161 166 166 166 160 152 149 148 142 154 158 152 154 142 145 156 144 142 138 153 152 156 138 134 136 146 149 143 128 120 97 193 264 287 210 236 234 94 68 74 65 77 73 57 56 37 51
315 301 160 11 4 44 175 98 150 141 145 150 165 183 245 220 226 135 147 147 152 148 161 167 168 170 169 173 165 173 176 176 183 183 177 177 179 181 178 174 170 168 162 166 167 177 171 168 163 161 165 170 174 165 155 156 160 156 153 153 160 148 149 148 157 147 150 150 150 161 156 165 142 148 139 139 129 137 141 161 198 240 263 306 328 172 163 83 83 79 70 54 38 57 20 17 72
190 283 62 114 52 295 177 137 157 120 147 171 186 257 288 236 206 153 158 149 157 162 165 169 171 173 172 177 165 174 181 186 185 180 178 177 178 180 178 169 170 165 158 169 180 177 171 167 165 167 169 172 177 172 167 165 164 161 159 165 168 155 153 150 155 147 157 158 157 154 159 178 155 161 155 144 140 143 152 179 212 222 188 148 315 326 67 61 82 108 96 62 43 23 360 296 353
359 47 299 317 168 285 313 111 169 155 160 186 113 308 253 273 197 146 163 156 159 165 171 172 174 176 175 181 168 177 183 187 186 184 180 178 177 179 178 176 171 171 172 171 173 173 177 168 170 170 168 173 179 175 167 170 170 167 163 172 166 166 155 163 164 163 158 158 165 164 168 190 166 168 158 149 142 158 160 190 215 198 167 142 147 156 97 149 105 87 96 108 254 316 347 340 14
350 100 251 283 95 286 72 211 181 4 119 184 191 215 319 317 171 144 161 163 167 169 179 180 180 180 177 184 174 179 178 187 188 187 183 179 182 180 179 175 178 176 169 169 172 175 179 174 175 172 174 175 176 176 166 168 166 169 167 174 170 169 168 177 164 154 153 167 176 180 176 196 167 171 161 153 153 158 165 185 208 186 156 157 156 141 114 20 118 88 58 89 228 233 4 337 331
320 5 171 209 154 161 304 327 174 187 147 189 229 259 237 285 248 144 165 171 168 175 183 186 187 185 182 183 179 180 183 184 190 190 187 182 182 182 179 179 178 175 174 172 173 176 180 176 178 177 172 171 173 174 170 170 172 165 167 173 168 176 184 176 163 155 170 175 179 192 187 196 163 175 161 156 158 161 163 171 178 161 153 137 136 133 116 120 75 105 137 39 110 128 356 344 325
199 19 33 351 344 117 184 150 214 158 179 180 210 240 265 286 128 171 174 176 177 184 183 185 187 189 185 186 184 184 186 188 193 190 186 184 181 182 179 180 178 177 177 174 170 170 172 174 177 182 171 173 172 168 163 165 160 160 158 164 174 182 182 178 163 173 172 174 190 191 184 194 172 168 165 157 157 173 153 166 156 172 157 149 128 87 92 129 125 107 115 62 50 26 292 248 283
134 145 152 124 45 310 141 244 228 173 171 203 194 216 239 246 196 192 177 184 185 187 181 184 189 193 189 189 188 187 190 195 192 188 185 184 183 181 180 179 180 181 177 173 171 169 171 172 175 180 176 172 161 158 155 157 159 167 170 165 173 191 181 178 185 190 168 183 187 182 188 185 178 165 170 158 165 168 165 175 165 159 164 145 148 174 218 197 183 121 60 52 21 333 249 265 342
123 100 113 151 242 282 285 265 222 192 157 213 206 220 228 239 197 198 188 178 187 181 186 187 190 192 194 192 192 192 193 196 187 186 186 186 184 182 181 177 180 181 178 175 172 175 174 175 174 186 179 170 166 167 169 168 174 173 175 182 192 184 184 181 190 184 187 187 179 179 183 187 177 171 172 160 168 184 174 167 162 162 156 160 174 204 198 169 136 111 83 50 41 29 346 34 15
159 126 162 300 149 272 240 226 264 186 178 237 226 234 243 240 213 196 179 179 197 192 190 193 192 195 196 192 193 194 195 185 180 187 190 187 188 185 181 180 177 176 184 178 180 181 179 174 180 183 174 177 180 179 176 179 183 185 172 183 178 172 173 181 193 192 191 182 174 177 183 181 178 180 175 167 165 175 162 170 174 172 165 172 185 75 234 265 78 62 63 34 42 49 344 15 119
101 180 161 19 269 245 278 272 294 200 183 279 181 227 246 240 211 191 186 190 200 200 195 193 186 192 197 196 194 190 180 187 186 190 187 188 188 186 184 183 183 184 180 182 185 180 180 180 180 178 182 183 186 182 176 186 184 173 172 170 176 157 184 192 193 186 177 176 177 176 175 177 180 181 178 171 162 177 172 171 184 168 168 170 181 283 341 322 43 70 90 83 341 50 295 249 130
153 100 114 212 236 44 307 313 11 104 167 216 190 205 250 258 215 198 198 192 202 206 203 196 194 193 198 200 192 186 186 183 188 188 189 188 187 187 188 187 186 184 184 186 182 182 182 186 180 179 181 184 186 188 187 176 163 159 163 157 163 150 166 177 158 138 167 159 178 171 171 177 182 182 177 174 171 177 174 185 171 175 177 171 170 201 245 267 203 114 105 116 97 339 357 326 76
227 168 162 163 196 228 177 264 339 161 253 225 131 16 309 226 204 217 204 195 197 197 195 203 211 214 208 203 200 196 194 188 187 188 189 188 187 188 190 190 185 186 187 186 185 184 185 186 185 181 178 183 185 188 181 155 140 133 121 94 111 95 75 134 145 165 179 184 163 168 187 178 181 182 176 177 177 179 181 177 176 180 173 175 157 181 200 217 199 175 157 136 157 172 312 320 337
317 211 183 194 170 213 268 339 17 11 337 288 154 18 293 282 229 207 179 180 200 183 189 201 204 209 205 204 206 202 201 196 191 188 189 189 187 187 192 191 188 191 190 188 187 187 184 186 185 182 178 178 182 182 170 160 161 156 150 149 161 171 171 169 186 188 178 181 193 175 164 178 178 180 174 176 184 173 182 183 178 170 177 172 181 186 192 189 200 189 176 168 179 221 154 77 321
113 272 181 172 179 200 224 58 51 335 179 309 125 146 264 323 240 229 195 193 195 181 193 198 201 203 204 206 206 203 199 198 200 193 186 188 190 189 192 192 192 193 194 185 187 188 187 185 185 183 180 177 174 174 168 165 161 166 172 179 177 181 184 200 189 183 176 188 176 166 177 172 180 180 180 178 180 182 180 183 183 183 177 175 183 171 190 203 198 191 147 163 189 151 130 321 293
227 245 165 164 174 196 224 186 173 228 288 305 141 133 205 315 290 224 204 192 199 202 203 199 200 200 202 205 204 204 202 198 196 196 189 191 191 191 192 192 192 195 190 184 188 188 187 186 184 185 183 179 173 166 171 175 174 179 178 178 182 187 191 192 181 177 170 165 172 183 165 183 181 186 181 182 180 179 177 186 187 178 175 175 184 190 198 198 175 162 166 162 149 171 171 189 263
203 218 136 156 178 197 179 158 196 231 36 287 333 11 7 275 277 301 158 183 215 217 209 206 201 199 201 203 203 203 202 199 196 196 194 191 193 194 191 191 193 193 189 188 188 188 189 186 184 183 185 180 175 168 172 182 183 184 182 174 182 198 191 183 165 161 167 166 178 179 178 183 185 187 187 184 186 179 185 188 184 181 178 183 196 194 199 186 191 174 172 164 173 172 183 177 188
233 166 121 129 130 118 145 172 177 271 104 267 263 176 153 282 292 57 131 204 221 220 216 212 202 197 199 200 203 203 201 200 200 199 197 195 193 194 192 189 188 194 191 189 188 185 185 184 184 183 188 185 177 173 173 181 187 184 181 182 184 188 174 155 160 170 172 172 184 186 187 182 189 186 189 193 192 191 188 186 188 190 190 186 197 198 190 193 191 193 192 187 169 180 194 194 206
111 121 124 120 74 59 38 76 115 62 282 261 225 220 136 292 271 193 157 212 216 217 222 220 208 204 201 201 200 200 199 198 199 200 201 199 194 191 185 189 192 191 189 187 188 188 185 185 186 187 190 184 179 179 175 182 187 188 189 186 187 179 174 163 164 180 174 178 193 192 185 192 186 195 185 195 200 194 195 191 191 195 190 190 195 188 201 202 200 199 189 176 182 188 186 200 242
177 119 122 98 26 22 53 348 36 159 275 260 268 183 137 154 316 345 304 324 326 285 232 210 206 205 199 200 201 201 199 198 197 197 200 198 190 189 187 191 189 191 187 189 191 186 188 188 186 188 188 185 183 183 181 184 187 190 192 189 189 182 171 175 183 185 186 190 194 194 190 179 192 195 192 193 202 196 196 201 200 187 191 189 201 199 202 204 202 183 176 186 204 195 173 183 214
141 114 89 141 253 83 252 63 189 178 190 262 58 144 75 246 184 251 290 345 341 319 277 259 227 209 200 199 200 198 198 196 197 198 196 196 193 188 190 191 188 188 190 190 190 188 188 189 188 188 191 188 187 186 187 187 188 192 192 192 194 180 180 183 187 189 187 190 190 190 181 194 186 192 201 199 204 194 191 198 197 196 196 197 196 189 205 195 190 183 187 201 203 203 192 188 200
123 144 153 134 156 144 171 260 246 341 284 244 248 301 187 233 325 350 346 336 340 344 333 282 231 224 214 205 198 197 197 196 198 197 196 196 195 192 190 189 188 190 192 191 190 188 187 189 190 192 193 188 188 189 192 191 194 194 192 191 190 183 189 189 190 190 189 190 185 192 192 193 193 199 194 205 196 187 195 202 200 208 209 196 188 190 193 195 183 188 188 203 217 218 188 193 212
218 135 157 171 141 154 184 182 165 188 195 264 291 138 201 127 235 327 334 315 352 359 3 5 344 240 217 213 208 207 199 200 197 197 198 197 195 192 190 190 190 191 191 191 190 189 187 190 189 193 193 191 189 193 193 196 197 194 192 192 187 189 192 193 197 193 184 186 191 192 197 196 199 201 199 201 186 187 192 197 202 207 208 202 189 184 190 188 188 180 188 212 230 220 215 198 214
236 175 76 100 209 134 155 201 147 170 136 53 251 204 176 116 185 42 355 356 11 7 10 10 9 359 308 179 196 202 206 204 199 199 200 199 195 191 190 190 190 192 191 190 190 188 189 191 190 193 192 189 191 193 197 199 198 193 192 190 192 192 194 193 195 193 192 191 190 194 198 200 205 197 195 187 194 187 190 196 199 208 203 203 196 190 185 183 184 187 197 192 227 213 218 211 219
217 97 155 170 140 103 83 53 40 99 72 177 265 340 338 289 314 3 354 1 11 10 9 8 3 1 356 297 208 202 207 207 205 204 201 199 194 193 192 189 190 191 190 191 190 189 189 188 189 193 195 192 193 194 196 197 197 192 194 194 193 193 194 194 197 197 194 192 192 198 199 205 199 195 194 186 186 192 193 193 199 203 201 201 201 196 185 185 184 194 196 199 220 217 206 220 211
100 79 225 300 150 126 125 165 335 56 136 224 41 28 345 31 213 348 340 2 5 9 5 1 1 5 4 346 320 246 210 206 206 208 209 204 198 195 194 192 191 190 190 191 191 189 188 189 188 190 192 193 195 196 199 197 193 196 196 194 195 197 199 201 198 197 192 185 195 200 202 197 204 202 193 188 185 185 196 198 200 206 199 194 204 198 188 185 182 196 200 208 216 194 215 221 211
91 146 352 138 132 180 312 102 123 122 171 127 58 7 64 32 303 339 346 349 348 359 354 6 7 0 353 343 328 307 239 211 203 202 203 204 201 196 195 197 195 193 191 191 189 186 188 191 192 192 193 193 191 193 197 198 195 195 194 197 197 198 200 202 200 190 178 190 199 199 203 209 205 198 196 190 184 189 192 203 204 204 200 200 197 200 190 188 184 195 192 208 204 199 218 229 210
27 5 30 356 93 106 112 192 175 118 188 93 239 46 46 318 311 342 326 334 341 351 354 2 3 358 355 343 336 319 264 218 204 201 202 201 200 197 200 195 191 192 192 191 188 187 189 191 191 195 197 194 193 195 194 195 194 193 197 196 202 201 199 198 196 187 187 196 202 200 204 205 210 197 201 192 191 189 194 199 203 202 201 198 200 200 192 190 188 200 194 197 197 195 219 231 222
353 27 7 5 356 254 59 29 58 190 160 173 137 42 27 328 332 335 323 327 358 357 348 349 355 0 357 356 348 341 315 231 213 205 201 201 198 199 198 196 191 189 191 188 188 190 191 189 192 193 191 193 197 198 194 198 192 196 194 194 196 196 202 201 197 193 195 199 198 199 202 210 193 204 196 194 199 198 197 204 205 208 207 207 211 209 195 187 194 203 197 194 187 191 209 226 221
68 69 64 308 2 29 89 142 355 50 82 177 111 141 255 288 356 337 351 346 11 354 355 345 357 360 2 3 4 3 3 348 244 227 233 212 208 205 200 193 187 185 188 190 192 190 188 190 193 193 193 196 194 194 196 195 194 195 197 198 197 196 199 199 201 198 200 197 195 196 198 187 198 209 194 202 205 199 197 199 204 214 215 211 209 212 192 184 201 206 207 190 195 192 201 217 214